Cambridge Bay Gsn, Nunavut

9:16 PM MDT on August 29, 2016 (GMT -0600)
Cambridge Bay

Weather History for CYCB - May, 2013

Change the Weather History Date:

Thursday, May 2, 2013

  Actual Average Record
Temperature  
Mean Temperature -10 °F -  
Max Temperature 0 °F 10 °F 21 °F (2005)
Min Temperature -20 °F 0 °F -20 °F (2013)
Degree Days  
Heating Degree Days 75    
Moisture  
Dew Point -16 °F    
Average Humidity 70    
Maximum Humidity 78    
Minimum Humidity 57    
Precipitation  
Precipitation 0.00 in - - ()
Sea Level Pressure  
Sea Level Pressure 30.22 in    
Wind  
Wind Speed 6 mph ()    
Max Wind Speed 14 mph    
Max Gust Speed -    
Visibility 15.0 miles    
Events      
Averages and records for this station are not official NWS values.
T = Trace of Precipitation, MM = Missing Value Source: Averaged Metar Reports

Daily Weather History Graph

Daily Weather History Graph

Search for Another Location

Airport or City:

Trip Planner

Search our weather history database for the weather conditions in past years. The results will help you decide how hot, cold, wet, or windy it might be!

Date:

Astronomy

May. 02, 2013 Rise Set
Actual Time 3:36 AM MDT 10:22 PM MDT
Civil Twilight 1:29 AM MDT 12:24 AM MDT
Nautical Twilight Sun does not set Sun does not set
Astronomical Twilight Sun does not set Sun does not set
Moon 3:29 AM MDT (5/2) 11:18 AM MDT (5/2)
Length of Visible Light 22h 55m
Length of Day
18h 45m
Waning Gibbous, 47% of the Moon is Illuminated
May 2
Waning Gibbous
May 9
New
May 17
First Quarter
May 24
Full
May 31
Last Quarter

Hourly Weather History & Observations

Time (MDT) Temp. Windchill Dew Point Humidity Pressure Visibility Wind Dir Wind Speed Gust Speed Precip Events Conditions
12:00 AM -13 °F - -19 °F 62% 30.32 in 15 mi Calm Calm - -   Scattered Clouds
12:00 AM -13.0 °F - -18.4 °F 77% 30.32 in 15.0 mi Calm Calm - N/A   Partly Cloudy
1:00 AM -13.0 °F - -20.2 °F 70% 30.30 in 15.0 mi ENE 2.3 mph - N/A   Partly Cloudy
2:00 AM -16.6 °F - -23.8 °F 70% 30.30 in 15.0 mi NE 2.3 mph - N/A   Partly Cloudy
3:00 AM -16.6 °F - -23.8 °F 70% 30.28 in 15.0 mi NNE 2.3 mph - N/A   Partly Cloudy
4:00 AM -18.4 °F -35.1 °F -27.4 °F 63% 30.27 in 15.0 mi NE 6.9 mph - N/A   Partly Cloudy
5:00 AM -20.2 °F -35.5 °F -27.4 °F 69% 30.26 in 15.0 mi NE 5.8 mph - N/A   Partly Cloudy
6:00 AM -19 °F - -26 °F 57% 30.24 in 15 mi NE 2.3 mph - -   Scattered Clouds
6:00 AM -18.4 °F -33.4 °F -25.6 °F 70% 30.24 in 15.0 mi NNE 5.8 mph - N/A   Partly Cloudy
7:00 AM -16.6 °F -31.3 °F -23.8 °F 70% 30.22 in 15.0 mi North 5.8 mph - N/A   Partly Cloudy
8:00 AM -14.8 °F -33.5 °F -22.0 °F 70% 30.20 in 15.0 mi NE 9.2 mph - N/A   Partly Cloudy
8:07 AM - - - N/A% - 15.0 mi NE 9.2 mph - N/A   Scattered Clouds
9:00 AM -11.2 °F -27.8 °F -18.4 °F 70% 30.19 in 15.0 mi NE 8.1 mph - N/A   Scattered Clouds
10:00 AM -7.6 °F -27.5 °F -14.8 °F 71% 30.17 in 15.0 mi NNE 12.7 mph - N/A   Scattered Clouds
11:00 AM -5.8 °F -25.2 °F -11.2 °F 77% 30.16 in 15.0 mi NE 12.7 mph - N/A   Mostly Cloudy
12:00 PM -4 °F - -10 °F 65% 30.16 in 15 mi NE 12.7 mph - -   Partly Cloudy
12:00 PM -4.0 °F -23.7 °F -9.4 °F 78% 30.16 in 15.0 mi NE 13.8 mph - N/A   Mostly Cloudy
1:00 PM -2.2 °F -21.5 °F -7.6 °F 78% 30.16 in 15.0 mi NE 13.8 mph - N/A   Mostly Cloudy
2:00 PM -0.4 °F -18.4 °F -7.6 °F 72% 30.16 in 15.0 mi NE 12.7 mph - N/A   Mostly Cloudy
3:00 PM -0.4 °F -19.2 °F -5.8 °F 78% 30.16 in 15.0 mi NE 13.8 mph - N/A   Scattered Clouds
4:00 PM -0.4 °F -19.2 °F -7.6 °F 72% 30.17 in 15.0 mi NE 13.8 mph - N/A   Partly Cloudy
5:00 PM -0.4 °F -19.2 °F -7.6 °F 72% 30.17 in 15.0 mi NE 13.8 mph - N/A   Partly Cloudy
6:00 PM -0 °F - -8 °F 57% 30.18 in 15 mi NE 11.5 mph - -   Scattered Clouds
6:00 PM -0.4 °F -17.6 °F -7.6 °F 72% 30.18 in 15.0 mi NE 11.5 mph - N/A   Partly Cloudy
7:00 PM -2.2 °F -15.6 °F -9.4 °F 71% 30.19 in 15.0 mi North 6.9 mph - N/A   Partly Cloudy
8:00 PM -2.2 °F -18.0 °F -11.2 °F 66% 30.20 in 15.0 mi NNE 9.2 mph - N/A   Partly Cloudy
9:00 PM -4.0 °F -21.2 °F -11.2 °F 71% 30.22 in 15.0 mi North 10.4 mph - N/A   Partly Cloudy
10:00 PM -7.6 °F -22.1 °F -13.0 °F 77% 30.23 in 15.0 mi NNW 6.9 mph - N/A   Partly Cloudy
11:00 PM -9.4 °F -25.6 °F -16.6 °F 71% 30.25 in 15.0 mi North 8.1 mph - N/A   Partly Cloudy